Regional Weather Roundup
Issued by NWS

Home | Current Version | Previous Version | Text Only | Print | Product List | Glossary On
Versions: 1 2 3 4 5 6 7 8 9 10 11 12 13 14 15 16 17 18 19 20 21 22 23 24 25 26 27 28 29 30 31 32 33 34 35 36 37 38 39 40 41 42 43 44 45 46 47 48 49 50
000
ASUS44 KEWX 031911
RWRTX
SOUTH TEXAS REGIONAL WEATHER ROUNDUP
NATIONAL WEATHER SERVICE AUSTIN/SAN ANTONIO TX
200 PM CDT FRI JUL 03 2015

NOTE: "FAIR" INDICATED FEW OR NO CLOUDS BELOW 12,000 FEET WITH NO
SIGNIFICANT WEATHER AND/OR OBSTRUCTIONS TO VISIBILITY.

* - THESE STATIONS ARE NOT NWS OR FAA STATIONS...AND ARE NOT SUBJECT
    TO NWS AND FAA QUALITY CONTROL.

TXZ171-172-183>190-032000-
TEXAS HILL COUNTRY AND EDWARDS PLATEAU

CITY           SKY/WX    TMP DP  RH WIND       PRES   REMARKS
JUNCTION       PTSUNNY   87  64  46 S9        30.01F
*LLANO         MOSUNNY   90  64  43 SW10      30.03S HX  91
BURNET         MOSUNNY   88  65  46 S13       30.03F HX  90
*HORSESHOE BAY MOSUNNY   90  65  43 S6G17     30.00F HX  92
*KERRVILLE     MOSUNNY   83  69  63 SE15G22   30.03F
*FREDERICKSBRG MOSUNNY   86  64  46 S10       30.03F
*ROCKSPRINGS   SUNNY     84  64  51 SE15      30.05F
*BOERNE STAGE  MOSUNNY   82  64  54 S9        30.03F
*CASTROVILLE   MOSUNNY   88  68  50 SE10      30.00F HAZE    HX  92
HONDO          PTSUNNY   85  71  63 SE9       30.00F HX  90
*UVALDE        MOSUNNY   86  70  58 SE10G17   29.98F HX  90
DEL RIO        MOSUNNY   88  68  51 SE15G22   29.92F HX  91
LAUGHLIN AFB   PTSUNNY   89  72  57 S16G24    29.94F HX  95
CARRIZO SPRGS  MOSUNNY   90  68  48 SE13      29.92F HX  93
$$

TXZ173-191>194-202-209-217>225-228-032000-
CENTRAL AND SOUTH CENTRAL TEXAS

CITY           SKY/WX    TMP DP  RH WIND       PRES   REMARKS
GEORGETOWN     MOSUNNY   90  70  51 S9        29.98F HX  95
AUSTIN/BERGSTM PTSUNNY   89  72  56 SW8       29.98F HX  96
AUSTIN/MABRY   MOSUNNY   89  71  55 SE8       30.00F HX  95
*AUSTIN/EXEC   PTSUNNY   88  72  58 S8        30.00S HX  94
*LAGO VISTA    MOSUNNY   89  65  46 S7        30.02F HX  91
SAN MARCOS     MOSUNNY   90  70  51 SE12      29.99F HX  95
NEW BRAUNFELS  PTSUNNY   89  71  55 S12       29.98F HX  95
RANDOLPH AFB   PTSUNNY   86  70  58 S12       29.99F HX  91
PT SAN ANTONIO DRIZZLE   86  72  62 S10       29.98F HX  92
SAN ANTONIO    PTSUNNY   88  72  58 S12       29.99F HX  94
STINSON FIELD  MOSUNNY   88  71  57 SE8       29.96F HX  94
*PLEASANTON    MOSUNNY   89  69  52 SE13      29.97F HX  93
*LA GRANGE     PTSUNNY   91  76  60 SE8       29.97F HX 103
*GIDDINGS      PTSUNNY   89  71  56 S7        30.03F HX  94
*GONZALES      PTSUNNY   90  75  61 SE6       29.98S HX  99
$$

TXZ163>164-176>182-195>201-210>213-226-227-235-032000-
SOUTHEAST TEXAS

CITY           SKY/WX    TMP DP  RH WIND       PRES   REMARKS
COLLEGE STN    PTSUNNY   89  72  56 SW12      29.99F HX  96
*BRYAN         PTSUNNY   90  74  59 S9        30.00S HX  99
*CALDWELL      PTSUNNY   90  72  55 S8        30.02S HX  96
*CROCKETT      PTSUNNY   91  79  66 SW8       30.01F HX 107
*BRENHAM       PTSUNNY   91  74  56 SE6       30.00F HX 100
HUNTSVILLE     PTSUNNY   89  74  60 SW9       30.00F HX  98
CONROE         PTSUNNY   91  71  51 S8        30.00F HX  97
HOUSTON BUSH   PTSUNNY   92  73  53 S13       29.98F HX 100
HOUSTON HOBBY  HVY RAIN  81  74  79 SE9G31    30.00S
*HOUSTON SW AP MOSUNNY   83  67  58 S7G16     29.99F
PEARLAND       MOSUNNY   91  74  57 S12G21    30.01F HX 100
HOUSTON HOOKS  MOSUNNY   91  73  55 S8        29.99F HX  99
ELLINGTON FLD  PTSUNNY   90  75  62 SE14      30.00F HX 100
SUGAR LAND     PTSUNNY   89  74  60 SE13      29.99F HX  98
*HOUSTON EXEC  MOSUNNY   90  73  58 SW9G18    30.00F HX  98
*CLEVELAND MUN PTSUNNY   91  77  65 SW3       30.00F HX 104
*WHARTON       MOSUNNY   90  74  60 SE14      30.00S HX  99
*COLUMBUS      FAIR      89  75  63 S9        29.98S HX  99
$$

TXZ214>216-236>238-032000-
THE UPPER TEXAS COAST

CITY           SKY/WX    TMP DP  RH WIND       PRES   REMARKS
*ORANGE        SUNNY     90  69  50 SE7       30.02F HX  95
PORT ARTHUR    MOSUNNY   92  75  57 S10       30.00F HX 103
GALVESTON      MOSUNNY   89  78  70 S12       30.03S HX 103
ANGLETON       PTSUNNY   89  75  63 S14       30.01S HX  99
*BAY CITY      MOSUNNY   92  76  59 S13       30.01S HX 104
PALACIOS       MOSUNNY   88  76  67 S15       30.00S HX  99
$$

TXZ229>234-239>247-032000-
TEXAS COASTAL BEND AND RIO GRANDE PLAINS

CITY           SKY/WX    TMP DP  RH WIND       PRES   REMARKS
VICTORIA       MOSUNNY   89  72  56 S16       29.99S HX  96
*BEEVILLE      MOSUNNY   89  73  59 S14G21    29.97S HX  97
ROCKPORT       LGT RAIN  89  74  60 SE14G23   29.97F HX  98
*PORT ARANSAS  MOSUNNY   87  78  76 S8        29.98F HX 100
*PORT LAVACA   MOSUNNY   89  75  62 SE15G21   29.99F HX  98
*INGLESIDE     MOSUNNY   89  75  62 SE16G23   29.97F HX 100
CORPUS CHRISTI PTSUNNY   89  73  59 SE22      29.96F HX  97
CORPUS NAS     MOSUNNY   89  78  70 SE16      29.97F HX 103
*ROBSTOWN      MOSUNNY   90  74  59 SE15      29.96F HX  99
ALICE          PTSUNNY   91  75  59 SE20G28   29.94F HX 101
KINGSVILLE NAS MOSUNNY   90  78  68 SE18G28   29.95F HX 104
COTULLA        MOSUNNY   91  69  48 SE14G21   29.94F HX  96
*FAITH RANCH   MOSUNNY   90  68  48 SE12G18   29.92F HX  93
LAREDO         MOSUNNY   96  65  35 SE22      29.92F HX  98
$$

TXZ248>255-032000-
DEEP SOUTH TEXAS

CITY           SKY/WX    TMP DP  RH WIND       PRES   REMARKS
BROWNSVILLE    MOSUNNY   90  74  59 SE17G24   29.95F HX  99
PORT ISABEL    MOSUNNY   88  75  65 SE21      29.95F HX  97
*SOUTH PADRE   SUNNY     86  79  79 MISG      29.97S HX  99
HARLINGEN      PTSUNNY   91  75  59 SE18      29.93F HX 101
*HEBBRONVILLE    N/A     89  68  49 SE16G23   29.95F HX  93
MCALLEN        MOSUNNY   94  69  44 SE18G29   29.92F HX  99
*WESLACO       MOSUNNY   91  71  51 SE16G23   29.92F HX  97
FALFURRIAS     PTSUNNY   90  73  58 SE13G20   29.93F HX  97
EDINBURG       MOSUNNY   92  72  50 SE15G22   29.93F HX 100
*ZAPATA        SUNNY     94  62  35 S14G26    29.89F HX  94
$$

TXZ213>215-236>238-242>244-246-247-251-254-255-032000-
CMAN STATIONS

STATION/POSITION TIME  TEMP    WIND        PRES    WAVE
                       AIR SEA DIR/SP/G            HT/PER
                 (UTC) (F)     (DEG/KT/KT) (MB)    (FT/S)
$$

GMZ080-GMZ150>470-032000-
OFFSHORE BUOY REPORTS

STATION/POSITION TIME  TEMP    WIND        PRES    WAVE
                       AIR SEA DIR/SP/G            HT/PER
                 (UTC) (F)     (DEG/KT/KT) (MB)    (FT/S)
$$


USA.gov is the U.S. government's official web portal to all federal, state and local government web resources and services.